Change the Weather History Date:

Monday, January 13, 2014

  Actual Average Record
Temperature  
Mean Temperature 70 °F -  
Max Temperature 81 °F 64 °F 83 °F (2004)
Min Temperature 55 °F 44 °F 33 °F (2013)
Cooling Degree Days 6    
Growing Degree Days 20 (Base 50)    
Moisture  
Dew Point 11 °F    
Average Humidity 12    
Maximum Humidity 21    
Minimum Humidity 5    
Precipitation  
Precipitation 0.00 in - - ()
Sea Level Pressure  
Sea Level Pressure 30.22 in    
Wind  
Wind Speed 11 mph (SE)    
Max Wind Speed 21 mph    
Max Gust Speed 24 mph    
Visibility 10 miles    
Events      
Averages and records for this station are not official NWS values.
T = Trace of Precipitation, MM = Missing Value Source: NWS Daily Summary

Daily Weather History Graph

Daily Weather History Graph

Search for Another Location

Airport or City:

Trip Planner

Search our weather history database for the weather conditions in past years. The results will help you decide how hot, cold, wet, or windy it might be!

Date:

Astronomy

Jan. 13, 2014 Rise Set
Actual Time 6:50 AM PST 5:03 PM PST
Civil Twilight 6:23 AM PST 5:30 PM PST
Nautical Twilight 5:53 AM PST 6:00 PM PST
Astronomical Twilight 5:23 AM PST 6:29 PM PST
Moon 3:21 PM PST (1/13) 4:43 AM PST (1/13)
Length of Visible Light 11h 06m
Length of Day
10h 13m
Waxing Gibbous, 95% of the Moon is Illuminated
Jan 13
Waxing Gibbous
Jan 15
Full
Jan 23
Last Quarter
Jan 30
New
Feb 6
First Quarter

Hourly Weather History & Observations

Time (PST) Temp. Dew Point Humidity Pressure Visibility Wind Dir Wind Speed Gust Speed Precip Events Conditions
12:53 AM 62.1 °F 21.9 °F 21% 30.14 in 10.0 mi South 9.2 mph 20.7 mph N/A   Clear
1:53 AM 64.9 °F 17.1 °F 16% 30.16 in 10.0 mi SSE 15.0 mph - N/A   Clear
2:53 AM 64.0 °F 14.0 °F 14% 30.17 in 10.0 mi SE 11.5 mph 18.4 mph N/A   Clear
3:53 AM 63.0 °F 12.0 °F 14% 30.17 in 10.0 mi ESE 8.1 mph - N/A   Clear
4:53 AM 62.1 °F 10.9 °F 13% 30.18 in 10.0 mi SSE 10.4 mph - N/A   Clear
5:53 AM 64.0 °F 9.0 °F 12% 30.20 in 10.0 mi SSE 15.0 mph - N/A   Clear
6:53 AM 63.0 °F 9.0 °F 12% 30.22 in 10.0 mi SE 13.8 mph - N/A   Clear
7:53 AM 66.0 °F 8.1 °F 10% 30.25 in 10.0 mi SSE 15.0 mph - N/A   Clear
8:53 AM 71.1 °F 7.0 °F 8% 30.28 in 10.0 mi SE 10.4 mph 19.6 mph N/A   Clear
10:53 AM 78.1 °F 6.1 °F 6% 30.28 in 10.0 mi ESE 17.3 mph 24.2 mph N/A   Clear
11:53 AM 79.0 °F 5.0 °F 6% 30.25 in 10.0 mi ESE 20.7 mph - N/A   Clear
12:53 PM 80.1 °F 3.0 °F 5% 30.21 in 10.0 mi SE 16.1 mph - N/A   Clear
1:53 PM 81.0 °F 3.0 °F 5% 30.21 in 10.0 mi ESE 15.0 mph - N/A   Clear
2:53 PM 80.1 °F 1.9 °F 5% 30.21 in 10.0 mi ESE 8.1 mph - N/A   Clear
3:53 PM 77.0 °F 15.1 °F 10% 30.22 in 10.0 mi WNW 4.6 mph - N/A   Clear
4:53 PM 73.0 °F 18.0 °F 12% 30.22 in 10.0 mi Calm Calm - N/A   Clear
5:53 PM 70.0 °F 12.9 °F 11% 30.23 in 10.0 mi NW 3.5 mph - N/A   Clear
6:53 PM 64.9 °F 10.9 °F 12% 30.24 in 10.0 mi SE 6.9 mph - N/A   Clear
7:53 PM 61.0 °F 14.0 °F 16% 30.23 in 10.0 mi ESE 4.6 mph - N/A   Clear
8:53 PM 63.0 °F 10.0 °F 13% 30.23 in 10.0 mi SSE 5.8 mph - N/A   Clear
9:53 PM 60.1 °F 12.0 °F 15% 30.24 in 10.0 mi Calm Calm - N/A   Clear
10:53 PM 60.1 °F 12.0 °F 15% 30.24 in 10.0 mi SE 8.1 mph - N/A   Clear
11:53 PM 55.9 °F 15.1 °F 20% 30.23 in 10.0 mi East 5.8 mph - N/A   Clear